Wind_Speed
24 24 24 23 22 20 19 18 17 16 15 15 16 17 17 17 17 17 19 19 19 20 20 20 20 19 19 19 20 22 22 23 23 21 21 22 22 22 22 23 23 23
24 24 24 23 22 20 18 17 16 16 17 17 17 17 17 17 17 18 19 19 20 21 21 20 20 19 20 20 20 21 22 22 23 22 22 24 24 25 25 24 24 23
23 23 23 23 22 21 19 18 18 18 18 18 17 17 17 18 18 18 19 20 21 22 21 21 21 20 20 19 19 21 21 22 23 23 24 26 25 26 26 25 24 23
22 22 22 22 21 21 20 20 20 19 18 18 17 17 17 18 18 19 19 20 21 22 21 21 21 20 19 19 19 21 22 22 23 23 26 27 25 25 25 25 25 24
22 22 22 22 22 22 21 21 20 19 19 19 18 18 18 18 18 19 20 20 21 22 21 21 21 20 19 19 20 21 22 23 22 23 26 27 26 25 25 25 25 25
22 22 22 22 22 22 21 21 20 20 19 20 19 18 17 17 17 18 19 20 20 21 21 21 21 21 19 19 20 21 22 22 22 23 26 27 26 25 24 25 26 26
21 21 21 22 22 21 21 21 21 20 20 20 19 17 15 15 16 17 18 19 20 21 21 21 21 21 19 19 20 22 21 21 21 22 24 25 25 24 24 25 26 27
20 20 21 22 22 21 21 22 21 20 20 18 17 15 13 13 15 17 17 19 20 20 20 21 21 20 19 19 20 22 21 20 20 21 23 24 24 23 23 23 25 25
18 19 21 21 21 22 22 22 21 20 19 16 15 14 12 12 14 17 18 19 20 20 20 21 21 20 19 19 20 21 21 20 20 20 22 23 24 22 20 20 21 22
18 20 21 22 22 23 23 23 22 20 17 15 14 12 12 13 16 18 19 19 20 21 21 21 21 20 19 19 20 19 19 19 19 21 22 23 23 21 19 17 18 19
20 22 23 23 24 24 24 23 22 19 17 14 13 13 13 15 17 19 20 20 20 21 21 21 20 19 19 20 19 18 18 18 18 19 21 21 20 19 17 15 15 17
22 22 24 24 24 24 24 23 21 18 16 14 13 13 15 16 18 20 20 21 21 20 20 20 19 18 18 19 18 17 17 17 17 18 18 18 17 17 17 15 14 15
22 23 24 24 24 24 24 22 20 17 16 15 14 15 16 17 19 21 21 21 21 20 20 20 19 18 17 17 17 15 15 15 15 15 15 15 15 15 16 15 13 13
24 24 24 24 24 24 23 21 19 17 16 16 16 16 17 18 20 22 22 21 21 20 20 20 19 18 16 16 15 14 13 13 12 13 13 13 13 13 14 14 13 13
25 25 24 24 25 24 24 22 20 18 18 18 17 17 18 19 20 22 22 22 21 20 20 19 18 17 16 14 13 12 12 11 10 10 11 11 12 12 13 13 12 12
26 25 25 25 26 25 24 23 21 19 19 18 18 18 18 18 20 21 22 21 21 20 19 18 17 16 15 14 12 11 10 10 9 9 9 10 11 12 12 12 11 10
26 26 26 26 26 26 25 23 21 20 20 19 18 18 18 19 19 20 21 21 20 20 18 18 17 16 15 13 12 11 9 9 9 8 8 10 11 13 13 11 10 10
27 28 27 27 27 26 25 23 22 21 20 19 19 19 18 19 19 20 20 20 19 19 18 17 16 15 13 12 11 11 9 8 8 9 9 9 10 12 12 10 9 10
28 28 28 28 27 27 26 24 23 21 21 20 20 19 18 19 19 19 20 19 18 18 17 16 15 13 12 11 11 10 7 6 7 9 10 8 8 9 10 9 8 10
28 28 28 28 28 28 27 25 23 22 21 20 19 19 19 19 19 18 18 18 17 17 16 15 14 12 11 10 9 8 6 6 7 9 10 7 5 5 7 8 8 11
28 27 27 27 28 29 28 26 24 23 21 20 19 18 18 18 18 18 18 17 16 16 16 15 13 11 10 8 7 6 5 6 8 9 9 7 4 1 4 6 8 11
28 28 27 28 29 29 28 27 25 24 22 20 19 18 18 18 17 17 17 16 16 15 15 14 12 9 9 8 6 6 6 7 8 8 8 6 4 1 2 4 7 10
30 30 29 29 30 29 29 28 26 24 23 21 19 18 18 18 17 17 16 15 14 14 13 13 11 8 7 7 7 7 7 8 8 8 7 5 3 1 1 3 6 9
31 31 31 31 30 30 30 29 27 25 23 21 19 18 17 17 17 17 16 14 13 13 12 12 11 8 6 6 8 9 9 9 9 8 7 5 4 3 0 3 5 7
31 31 31 31 30 29 29 28 27 25 23 20 19 17 17 17 18 18 16 14 13 12 11 10 10 9 7 7 8 10 11 10 10 8 7 6 5 4 1 3 4 5
31 31 31 31 30 29 27 27 26 25 23 21 20 18 17 18 18 17 16 15 13 12 10 9 9 8 8 8 9 10 11 10 9 8 8 8 6 3 2 3 4 5
Wind_Direction
163 163 161 156 152 149 147 143 138 131 125 120 115 111 112 113 114 114 111 110 107 103 102 103 102 103 103 100 97 94 92 90 86 82 77 74 74 74 74 74 72 70
162 162 159 153 148 146 144 141 135 130 125 122 119 117 119 120 120 118 116 114 110 106 105 105 104 105 104 101 98 96 94 90 85 80 77 77 77 75 74 72 70 67
159 158 155 151 147 145 142 138 134 131 128 125 123 123 125 125 123 121 119 116 111 108 107 106 105 105 104 102 99 96 94 90 85 81 80 79 76 74 72 70 67 64
154 153 152 150 148 146 143 140 137 134 133 130 129 129 129 128 126 122 120 116 112 110 108 107 106 105 105 103 100 98 94 90 86 84 82 79 74 72 72 69 66 63
152 150 150 149 148 146 144 143 140 138 137 135 134 134 132 130 127 122 119 115 113 112 111 110 109 108 107 104 101 99 95 91 86 84 83 78 73 72 71 68 65 63
150 149 150 149 148 149 148 145 143 142 140 139 138 135 133 130 126 121 119 117 117 117 115 115 113 111 108 106 103 100 96 91 87 85 83 78 74 72 70 67 66 64
150 150 151 151 150 152 150 146 144 144 142 141 139 135 132 129 124 123 123 122 122 121 121 120 117 113 111 109 106 102 98 92 87 86 84 78 73 70 68 67 66 66
152 153 155 155 154 153 151 147 145 145 144 143 138 133 131 128 127 129 130 128 127 125 124 123 119 117 115 112 109 106 100 92 86 87 85 77 71 68 66 66 66 66
156 158 159 159 156 153 150 147 146 145 146 144 137 132 132 131 136 139 137 134 131 128 127 126 123 121 118 115 112 108 101 92 85 84 82 76 69 66 64 65 66 64
159 159 159 158 154 150 148 146 145 144 145 143 136 133 135 138 144 145 142 138 134 131 130 129 127 124 120 117 113 107 99 93 87 82 79 74 68 65 64 64 65 63
155 154 154 152 150 148 147 146 145 144 143 140 136 135 136 141 146 147 144 140 136 134 133 131 129 126 122 119 113 105 97 92 88 82 77 74 70 66 65 66 65 61
153 152 152 150 150 149 148 147 145 144 142 139 139 139 137 141 146 147 146 142 138 136 135 133 131 127 124 120 114 107 98 92 88 83 78 76 73 67 64 63 64 61
155 155 154 152 152 151 148 147 145 144 142 139 142 141 138 140 144 146 145 142 138 137 136 134 132 128 124 121 116 110 102 96 91 87 84 80 74 69 66 62 63 63
159 157 156 155 155 153 150 147 145 144 142 140 142 140 137 139 143 145 145 142 140 138 136 136 134 128 124 121 118 113 107 103 99 94 90 85 78 71 66 63 63 61
160 159 158 158 157 154 151 148 145 143 141 141 140 137 135 137 141 145 145 143 141 139 138 139 136 130 126 124 121 117 113 114 113 105 96 89 82 74 67 61 60 56
162 162 160 159 159 156 152 149 146 145 143 140 137 133 134 136 140 144 146 144 142 140 140 140 137 133 131 128 125 124 124 128 131 122 108 96 83 75 66 58 57 52
163 163 161 161 160 158 154 151 149 146 143 139 135 132 133 138 142 145 146 145 144 143 141 139 138 138 138 135 133 133 135 138 144 143 126 106 86 74 65 57 52 43
164 163 162 162 162 160 157 154 150 146 143 138 134 133 135 140 144 145 145 146 146 143 141 140 139 141 145 146 144 143 140 136 146 158 146 117 91 73 63 53 41 29
166 165 164 164 164 162 159 155 151 146 141 137 135 135 138 140 142 143 144 145 146 144 141 140 141 145 152 155 155 154 152 144 149 163 158 130 98 74 54 40 26 19
167 166 165 165 165 163 160 156 152 146 140 138 137 138 139 139 140 142 142 143 146 144 142 142 143 149 158 161 159 158 159 155 155 163 164 151 122 76 42 23 12 10
166 166 166 166 165 164 162 159 154 148 142 139 137 138 138 138 138 141 142 144 146 146 145 143 144 150 160 164 163 160 159 157 158 165 171 173 168 94 18 3 360 2
169 169 168 168 168 167 166 162 158 152 146 141 138 136 136 135 135 137 139 142 148 153 152 147 145 156 168 175 178 174 169 164 162 168 176 183 188 214 347 345 350 354
174 172 170 171 172 172 170 167 162 157 152 148 144 139 136 135 132 131 133 137 144 151 153 147 145 158 175 184 189 186 178 171 165 165 166 168 167 145 360 344 352 356
178 176 173 172 174 176 174 170 166 162 160 158 153 147 140 135 131 127 127 130 134 138 141 138 136 143 161 176 182 182 180 173 166 161 156 151 151 155 110 354 5 12
180 180 178 176 176 177 177 174 171 168 166 165 162 157 149 140 133 128 126 126 127 128 130 129 127 129 140 155 164 171 176 174 169 167 160 154 156 161 86 21 32 36
182 182 182 180 178 178 178 178 175 172 170 170 168 164 158 148 140 133 129 127 126 124 122 123 123 125 133 145 154 160 168 172 175 176 164 154 151 139 57 44 47 40
Height
818 819 821 823 826 827 829 831 832 833 834 835 835 835 836 836 837 837 837 838 838 837 838 838 838 839 840 841 842 842 843 844 845 846 846 846 846 846 846 847 846 847
819 820 822 824 826 828 830 831 833 834 834 835 835 836 837 837 838 838 838 839 838 838 839 839 840 841 842 843 844 844 845 846 847 848 847 847 848 848 848 848 848 848
820 822 823 825 827 829 831 832 833 834 835 835 836 837 838 838 839 839 839 839 839 839 839 840 841 843 844 845 845 846 847 848 849 849 849 849 850 850 850 850 850 850
821 823 825 826 828 830 831 833 833 834 835 836 837 838 839 839 840 840 840 839 839 840 840 841 843 844 846 847 847 848 849 850 850 850 850 851 852 852 852 852 851 851
822 824 825 827 829 830 832 833 833 834 835 837 838 839 840 840 840 840 840 840 840 841 842 843 845 846 848 848 849 850 850 851 852 852 852 853 854 854 854 853 852 852
824 825 826 828 829 831 832 833 833 834 836 838 839 840 840 840 840 840 840 841 841 842 843 845 847 848 849 850 850 851 852 853 854 854 853 854 855 855 855 854 853 852
824 826 827 829 830 831 832 833 834 835 836 838 839 840 841 840 840 841 841 842 843 844 845 847 848 850 851 851 852 852 853 854 855 855 855 856 856 856 856 855 854 853
825 827 828 829 830 831 832 833 834 836 837 838 839 840 841 841 841 842 843 843 844 845 847 849 850 851 852 853 853 854 855 856 856 856 856 856 856 856 856 856 855 855
826 827 829 830 831 831 832 834 835 837 838 839 840 841 841 842 842 843 844 845 846 847 849 850 852 853 853 854 854 855 856 857 857 857 857 857 857 857 857 857 857 857
826 828 829 830 831 832 833 835 836 838 839 840 841 841 842 843 843 844 845 846 847 849 850 852 853 854 855 855 856 856 857 858 858 858 858 857 858 858 859 859 859 859
827 828 829 830 831 832 834 836 837 839 840 841 842 842 843 844 844 845 846 848 849 850 852 853 854 855 855 856 857 857 858 858 858 859 859 859 859 860 860 861 861 860
828 829 830 831 833 834 835 837 839 840 841 842 843 843 844 845 845 846 848 849 851 852 853 854 855 856 856 857 857 858 858 859 859 859 860 861 861 862 862 862 862 862
828 830 831 832 834 835 837 838 840 841 842 843 844 844 845 846 846 848 849 851 852 853 854 855 856 857 857 858 858 859 859 860 860 861 862 862 863 864 864 864 863 863
829 831 832 834 835 837 838 839 841 842 843 844 845 845 846 847 848 849 850 852 853 854 855 856 857 858 858 858 859 860 860 861 862 863 863 864 865 865 865 865 864 864
830 831 833 835 836 837 839 840 842 843 844 845 846 846 847 848 849 850 851 853 854 855 856 857 858 859 859 859 860 861 861 862 863 864 865 866 866 866 866 866 865 865
830 832 834 835 837 838 840 841 843 844 845 846 846 847 848 849 850 851 852 854 855 856 857 858 859 859 860 861 861 862 863 864 864 865 866 867 867 867 867 866 866 866
830 832 834 836 838 839 841 842 843 845 845 846 846 847 849 850 852 853 854 855 856 857 858 858 859 860 861 862 862 863 864 864 866 866 867 868 868 868 867 867 867 867
830 832 834 837 839 840 842 843 844 845 846 847 847 848 850 851 853 854 855 856 856 857 858 859 860 861 862 863 863 864 865 865 866 867 868 868 868 868 868 868 868 867
830 832 834 837 839 841 843 844 845 847 847 847 848 850 851 852 854 854 855 856 857 858 859 860 861 862 863 863 864 864 865 866 867 867 868 868 869 868 868 868 868 867
830 832 835 838 839 842 844 845 846 848 848 848 849 851 852 853 854 855 855 856 857 858 860 861 862 863 863 864 864 865 866 866 867 868 868 869 869 869 869 868 868 867
831 834 837 839 841 843 844 846 847 848 849 850 850 852 853 854 855 855 856 857 858 859 860 861 862 863 863 864 864 865 866 866 867 868 868 868 869 869 869 868 867 866
832 835 838 840 843 844 845 846 848 849 850 851 851 853 854 855 855 856 856 858 859 860 861 861 862 863 863 864 864 865 866 866 867 867 868 868 869 869 868 868 867 866
831 834 837 840 842 844 845 846 847 849 850 851 852 854 855 856 856 857 857 858 859 860 861 861 862 863 863 864 864 865 865 866 867 867 868 868 869 868 868 868 867 866
831 833 836 838 840 842 844 845 847 849 850 851 853 855 856 857 857 857 858 860 860 861 861 861 862 862 863 863 864 865 865 866 866 867 868 868 868 868 868 867 866 865
829 832 835 837 839 842 843 845 847 849 850 852 854 855 856 857 858 858 859 860 861 862 862 862 862 863 863 864 864 865 865 866 866 867 867 868 868 868 868 867 866 865
828 830 833 836 838 841 843 845 847 849 851 853 854 856 857 857 858 859 860 861 862 862 862 862 863 863 864 864 865 865 866 866 866 867 867 867 868 868 867 866 866 865